Regional Weather Roundup
Issued by NWS Spokane, WA

Home | Current Version | Previous Version | Text Only | Print | Product List | Glossary On
Versions: 1 2 3 4 5 6 7 8 9 10 11 12 13 14 15 16 17 18 19 20 21 22 23 24 25 26 27 28 29 30 31 32 33 34 35 36 37 38 39 40 41 42 43 44 45 46 47 48 49 50
000
NZUS01 KOTX 271510
RWROTX

Eastern Washington/Northern Idaho Roundup
National Weather Service, Spokane WA
800 AM PDT SAT AUG 27 2016

Note: "fair" indicated few or no clouds below 12,000 feet with no
significant weather and/or obstructions to visibility.

...Northeast Washington and Northern Idaho Panhandle...

CITY           SKY/WX    TMP DP  RH WIND       PRES   REMARKS
Spokane Intl   PTSUNNY   65  37  35 S10       29.78R
Spokane Downto MOSUNNY   69  40  34 CALM      29.78R HAZE
Coeur d Alene  MOSUNNY   66  45  45 S8        29.77R
Deer Park      MOSUNNY   67  39  35 S6        29.79R
Sandpoint      PTSUNNY   63  46  55 S6        29.77R
Bonners Ferry    N/A     66  45  45 SE3       29.76R

...Southeast Washington and southern Idaho Panhandle...

CITY           SKY/WX    TMP DP  RH WIND       PRES   REMARKS
Walla Walla    PTSUNNY   77  41  27 S15       29.80S
Pullman/Moscow PTSUNNY   66  39  37 SE8       29.86S
Lewiston       MOSUNNY   67  41  38 NE6       29.82R
Lowell           N/A     53  45  74 N3        29.93F
Grangeville    FAIR      63  37  39 E3        29.90S

...Columbia Basin...

CITY           SKY/WX    TMP DP  RH WIND       PRES   REMARKS
Ephrata        PTSUNNY   70  48  45 S5        29.71S
Moses Lake     PTSUNNY   70  46  42 S8        29.72S
Pasco          MOSUNNY   73  47  39 SW6       29.74S
Richland       MOSUNNY   75  47  36 S10       29.73F
Hermiston      MOSUNNY   67  45  45 S3        29.78R
Pendleton      MOSUNNY   69  39  33 S7        29.82S

...East Slopes Cascades...

CITY           SKY/WX    TMP DP  RH WIND       PRES   REMARKS
The Dalles     SUNNY     74  47  38 CALM      29.80S
Yakima         MOSUNNY   62  48  60 CALM      29.77S
Ellensburg     MOSUNNY   66  45  46 NW7       29.78S
Stampede Pass  SUNNY     57  36  45 VRB6      29.90F
Wenatchee      CLOUDY    71  45  39 SW6       29.71S
Omak           CLOUDY    67  44  43 CALM      29.69S
Sunnyside        N/A     61  50  67 CALM      29.76S

...Southern British Columbia...

CITY           SKY/WX    TMP DP  RH WIND       PRES   REMARKS
Castlegar      PTSUNNY   63  48  59 SE5       29.72S
Cranbrook      PTSUNNY   63  45  51 CALM      29.73F
Osoyoos          N/A     66  50  55 E1          N/A
Creston          N/A     63  45  51 E9          N/A

...Western Montana...

CITY           SKY/WX    TMP DP  RH WIND       PRES   REMARKS
Kalispell      MOSUNNY   63  46  54 VRB7      29.82S
Libby            N/A     63  43  48 CALM      29.77F
Missoula       MOSUNNY   57  41  55 CALM      29.93S

...Neighboring Cities...

CITY           SKY/WX    TMP DP  RH WIND       PRES   REMARKS
Seattle        CLOUDY    61  55  81 SW10      29.85R
Portland       MOSUNNY   64  54  69 NW6       29.93R
Boise          SUNNY     66  33  29 SE7       29.95S
Great Falls    CLOUDY    67  36  31 SW16      29.83F
Calgary        CLOUDY    61  46  59 SW7       29.64S



USA.gov is the U.S. government's official web portal to all federal, state and local government web resources and services.